Lexington Weather

Lexington, Massachusetts, USA

31°F
1/23/2020 10:08am 
  • Lexington Conditions: Clear
  • Temperature: 31.3°F / -0.4°CWarmer 4.7°F than last hour.
  • Dew Point: 20.8°FIncreased 1.8°Fsince last hour.
  • Relative Humidity: 65%Decreased 8.0% since last hour.
  • Wind: Calm, 10-min avg: Calm, gust: 1 mph
  • Barometer: 30.34 in Steady
  • Visibility: 10 miles
  • Snow Today: 0.0 in
  •   

Regional Weather Roundup
for Boston / Norton, MA

        
000
ASUS41 KBOX 230610
RWRBOX

REGIONAL WEATHER ROUNDUP
NATIONAL WEATHER SERVICE BOSTON/NORTON MA
100 AM EST THU JAN 23 2020

NOTE:  "FAIR" INDICATES FEW OR NO CLOUDS BELOW 12,000 FEET WITH NO 
SIGNIFICANT WEATHER AND/OR OBSTRUCTIONS TO VISIBILITY.

MAZALL-230700-
EASTERN MASSACHUSETTS
  
CITY           SKY/WX    TMP DP  RH WIND       PRES   REMARKS
BOSTON         FAIR      30  17  58 SW7       30.39F WCI  23          
6HR MIN TEMP:  29; 6HR MAX TEMP:  35;                                

BEVERLY        FAIR      23  15  71 SW5       30.38F WCI  17          
LAWRENCE       FAIR      23  14  68 S5        30.39F WCI  17          
BEDFORD        FAIR      17  11  77 CALM      30.37F                  
BLUE HILL        N/A     27  16  63 W10       30.35F WCI  17          
NORWOOD        FAIR      17   9  70 CALM      30.39F                  
MARSHFIELD     FAIR      21  19  93 W5        30.40F WCI  15          
PLYMOUTH       FAIR      19  16  88 CALM      30.40F                  
TAUNTON        FAIR      15  11  83 CALM      30.40F                  
NEW BEDFORD    FAIR      18  14  84 CALM      30.40F                  
$$

MAZALL-230700-
CAPE COD AND THE ISLANDS
  
CITY           SKY/WX    TMP DP  RH WIND       PRES   REMARKS
FALMOUTH       CLEAR     16  14  93 CALM      30.40F                  
HYANNIS        FAIR      18  14  84 CALM      30.39F                  
CHATHAM        FAIR      24  20  84 CALM      30.41F                  
PROVINCETOWN   FAIR      31  27  85 SW9       30.41F WCI  23          
NANTUCKET      FAIR      24  21  88 NW3       30.41F                  
MARTHAS VNYRD  FAIR      14  11  87 CALM      30.40F                  
$$
 
MAZALL-230700-
CENTRAL AND WESTERN MASSACHUSETTS
  
CITY           SKY/WX    TMP DP  RH WIND       PRES   REMARKS
WORCESTER      FAIR      28  14  55 W12       30.32F WCI  18          
6HR MIN TEMP:  25; 6HR MAX TEMP:  31;                                

FITCHBURG      FAIR      14  10  84 CALM      30.37F                  
ORANGE         FAIR      11   6  81 CALM      30.38F                  
SPRINGFIELD    FAIR      10   6  85 NE3       30.38F                  
WESTFIELD      NOT AVBL                                               
NORTH ADAMS    FAIR       9   5  84 CALM      30.38F                  
PITTSFIELD     FAIR      13   8  81 CALM      30.33F                  
$$
 
RIZALL-230700-
RHODE ISLAND
  
CITY           SKY/WX    TMP DP  RH WIND       PRES   REMARKS
PROVIDENCE     FAIR      23  18  81 CALM      30.41F                  
6HR MIN TEMP:  21; 6HR MAX TEMP:  30;                                

NEWPORT        FAIR      23  17  78 CALM      30.39F                  
BLOCK ISLAND   FAIR      27  22  81 SW3       30.40F                  
SMITHFIELD     FAIR      24  17  74 CALM      30.38F                  
WESTERLY       FAIR      22  16  78 CALM      30.41F                  
$$
 
CTZALL-230700-
CONNECTICUT
  
CITY           SKY/WX    TMP DP  RH WIND       PRES   REMARKS
BRADLEY INTL   MOCLDY    16  11  80 CALM      30.39F                  
6HR MIN TEMP:  15; 6HR MAX TEMP:  26;                                

HARTFORD       FAIR      19  16  88 CALM      30.40F                  
BRIDGEPORT     FAIR      25  20  81 CALM      30.40F                  
DANBURY        FAIR      17  13  84 CALM      30.39F                  
GROTON         FAIR      19  18  95 CALM      30.40F                  
NEW HAVEN      FAIR      21  18  88 CALM      30.40F                  
CHESTER        NOT AVBL                                               
MERIDEN        FAIR      17  14  88 SE6       30.40F WCI   9          
WILLIMANTIC    FAIR      13   9  84 NE3       30.40F                  
OXFORD         FAIR      23  15  71 N5        30.37F WCI  17          
$$

MEZ002-015-021-024-NHZ003-005-008-011-012-014-VTZ005-008-230700-
NORTHERN NEW ENGLAND
  
CITY           SKY/WX    TMP DP  RH WIND       PRES   REMARKS
PORTLAND ME    FAIR      27  14  58 SW5       30.35S WCI  22          
6HR MIN TEMP:  23; 6HR MAX TEMP:  30;                                

BANGOR ME      FAIR      16  13  88 S6        30.31F WCI   7          
CONCORD NH     FAIR      11   8  88 CALM      30.36S                  
MANCHESTER NH  FAIR      19  14  81 CALM      30.35F                  
NASHUA NH      FAIR      13  12  96 CALM      30.37F                  
PORTSMOUTH NH  PTCLDY    21  14  73 W3        30.35F                  
JAFFREY NH     FAIR      15  11  83 S6        30.33F WCI   6          
KEENE NH       FAIR       8   5  87 CALM      30.38F                  
BURLINGTON VT  FAIR      31  17  56 S9        30.30S WCI  23          
MT. WASHINGTON PTCLDY    19  -2  38 W46         N/A  WCI  -3          
$$

NYZ052-076-230700-
EASTERN NEW YORK
  
CITY           SKY/WX    TMP DP  RH WIND       PRES   REMARKS
ALBANY         FAIR      17  10  74 CALM      30.39F                  
6HR MIN TEMP:  17; 6HR MAX TEMP:  30;                                

NEW YORK CITY  CLOUDY    36  23  59 CALM      30.40F                  
6HR MIN TEMP:  34; 6HR MAX TEMP:  37;                                

$$
 
ANZALL-230700-
MARINE OBSERVATIONS
  
STATION/POSITION TIME  TEMP    WIND        PRES    VSBY  WAVE
                       AIR SEA DIR/SP/G                  HT/PER
                 (UTC) (F)     (DEG/KT/KT) (MB)    (MI)  (FT/S)
BOSTON BUOY      0450   34 42  200/ 12/ 14 1028.9          1/ 9
BUZZARDS BAY     0500   37     270/  6/  7 1030.3F
NANTUCKET SOUND  0540                      1029.8F
MASS BAY-STELLWA 0504   35 42  240/ 14/ 16 1027.3F  1 7/8  2/ 3
ISLE OF SHOALS   0500   34     210/ 15/ 16 1028.4F
S OF BLOCK IS    0530      45                N/A           2/ 8
$$

......................KEY.........................
  SKY/WX - SKY CONDITION/PRESENT WEATHER
  TMP    - TEMPERATURE IN FAHRENHEIT
  DWPT   - DEWPOINT IN FAHRENHEIT
  RH     - RELATIVE HUMIDITY IN PERCENT
  WIND   - DIRECTION AND SPEED IN MPH
  PRES   - MEAN SEA LEVEL PRESSURE IN INCHES OF HG
  WCI    - WIND CHILL INDEX
  VSB    - VISIBILITY IN MILES
  HX     - HEAT INDEX
  TC     - TEMPERATURE IN CELSIUS
  VRB    - VARIABLE WIND DIRECTION
  N/A    - NOT AVAILABLE
  
      

Other recent Regional Weather Roundups

Thu Jan 23, 9:10am

Thu Jan 23, 9:00am

Thu Jan 23, 8:10am

Thu Jan 23, 8:00am

Thu Jan 23, 7:10am

Thu Jan 23, 7:01am

Thu Jan 23, 6:10am

Thu Jan 23, 6:00am

Thu Jan 23, 5:10am

Thu Jan 23, 5:00am

Thu Jan 23, 4:10am

Thu Jan 23, 4:01am

Thu Jan 23, 3:10am

Thu Jan 23, 3:00am

Thu Jan 23, 2:10am

Thu Jan 23, 2:00am

Thu Jan 23, 1:00am

Thu Jan 23, 12:10am

Thu Jan 23, 12:00am

Wed Jan 22, 11:10pm

Wed Jan 22, 11:01pm

Wed Jan 22, 10:10pm

Wed Jan 22, 10:00pm

Wed Jan 22, 9:10pm

Wed Jan 22, 9:00pm

Wed Jan 22, 8:10pm

Wed Jan 22, 8:01pm

Wed Jan 22, 7:10pm

Wed Jan 22, 7:00pm

Wed Jan 22, 6:10pm

Wed Jan 22, 6:01pm

Wed Jan 22, 5:10pm

Wed Jan 22, 5:00pm

Wed Jan 22, 4:10pm

Wed Jan 22, 4:00pm

Wed Jan 22, 3:10pm

Wed Jan 22, 3:00pm

Wed Jan 22, 2:10pm

Wed Jan 22, 2:00pm

Wed Jan 22, 1:10pm

Wed Jan 22, 1:00pm

Wed Jan 22, 12:10pm

Wed Jan 22, 12:00pm

Wed Jan 22, 11:10am

Wed Jan 22, 11:00am

Wed Jan 22, 10:10am

Wed Jan 22, 10:01am

Wed Jan 22, 9:10am

Wed Jan 22, 9:00am

Wed Jan 22, 8:10am

Wed Jan 22, 8:00am

Wed Jan 22, 7:10am

Wed Jan 22, 7:00am

Wed Jan 22, 6:10am

Wed Jan 22, 6:00am

Wed Jan 22, 5:10am

Wed Jan 22, 5:00am

Wed Jan 22, 4:10am

Wed Jan 22, 4:00am

Wed Jan 22, 3:10am

Wed Jan 22, 3:01am

Wed Jan 22, 2:10am

Wed Jan 22, 2:00am

Wed Jan 22, 1:10am

Wed Jan 22, 1:00am

Wed Jan 22, 12:10am

Wed Jan 22, 12:00am

Tue Jan 21, 11:10pm

Tue Jan 21, 11:00pm

Tue Jan 21, 10:10pm

Tue Jan 21, 10:00pm

Tue Jan 21, 9:10pm

Tue Jan 21, 9:01pm

Tue Jan 21, 8:10pm

Tue Jan 21, 8:00pm

Tue Jan 21, 7:10pm

Tue Jan 21, 7:00pm

Tue Jan 21, 6:10pm

Tue Jan 21, 6:01pm

Tue Jan 21, 5:10pm

Tue Jan 21, 5:00pm

Tue Jan 21, 4:10pm

Tue Jan 21, 4:00pm

Tue Jan 21, 3:10pm

Tue Jan 21, 3:01pm

Tue Jan 21, 2:10pm

Tue Jan 21, 2:00pm

Tue Jan 21, 1:10pm

Tue Jan 21, 1:00pm

Tue Jan 21, 12:10pm

Tue Jan 21, 12:00pm

Tue Jan 21, 11:10am

Tue Jan 21, 11:00am

Tue Jan 21, 10:10am

Tue Jan 21, 10:00am

Tue Jan 21, 9:10am

Tue Jan 21, 9:00am

Tue Jan 21, 8:10am

Tue Jan 21, 8:00am

Tue Jan 21, 7:10am

Tue Jan 21, 7:00am

Tue Jan 21, 6:10am

Tue Jan 21, 6:00am

Tue Jan 21, 5:10am

Tue Jan 21, 5:00am

Tue Jan 21, 4:10am

Tue Jan 21, 4:00am

Tue Jan 21, 3:10am

Tue Jan 21, 3:00am

Tue Jan 21, 2:10am

Tue Jan 21, 2:01am

Tue Jan 21, 1:10am

Tue Jan 21, 1:00am

Tue Jan 21, 12:10am

Tue Jan 21, 12:00am

Mon Jan 20, 11:10pm

Mon Jan 20, 11:00pm

Mon Jan 20, 10:10pm

Mon Jan 20, 10:00pm

Mon Jan 20, 9:10pm

Mon Jan 20, 9:00pm

Mon Jan 20, 8:10pm

Mon Jan 20, 8:00pm

Mon Jan 20, 7:10pm

Mon Jan 20, 7:00pm

Mon Jan 20, 6:10pm

Mon Jan 20, 6:00pm

Mon Jan 20, 5:10pm

Mon Jan 20, 5:00pm

Mon Jan 20, 4:10pm

Mon Jan 20, 4:01pm

Mon Jan 20, 3:10pm

Mon Jan 20, 3:00pm

Mon Jan 20, 2:10pm

Mon Jan 20, 2:00pm

Mon Jan 20, 1:10pm

Mon Jan 20, 1:00pm

Mon Jan 20, 12:10pm

Mon Jan 20, 12:00pm

Mon Jan 20, 11:10am

Mon Jan 20, 11:00am

Mon Jan 20, 10:10am

Mon Jan 20, 10:00am

Meta data:

ID: d0bfd772-c7b4-4a45-8a53-995bb4da9fb1
Link: https://api.weather.gov/products/d0bfd772-c7b4-4a45-8a53-995bb4da9fb1